GW1095 Weather Reports


time (UTC)temp
C
wind
direction
speed
KPH
gust
KPH
rain 1hr
cm
rain 24hr
cm
rain mn
cm
humidity
%
barometer
mb
20260502210039 13 249 16.1 37.0 0.00 0.43 0.08 37 1011.7
20260502204534 13 334 16.1 37.0 0.00 0.43 0.08 36 1011.7
20260502203037 13 271 12.9 30.6 0.00 0.43 0.08 37 1011.5
20260502201545 13 242 9.7 30.6 0.00 0.43 0.08 38 1011.6
20260502200038 13 274 16.1 38.6 0.00 0.43 0.08 38 1011.8
20260502194536 13 265 17.7 32.2 0.00 0.43 0.08 39 1011.8
20260502193035 13 338 16.1 30.6 0.00 0.43 0.08 40 1011.8
20260502191542 13 234 17.7 32.2 0.00 0.43 0.08 39 1011.9
20260502190038 13 250 17.7 33.8 0.00 0.43 0.08 40 1012.0
20260502184549 13 246 11.3 25.7 0.00 0.43 0.08 42 1012.0
20260502183038 13 225 16.1 35.4 0.00 0.43 0.08 43 1012.0
20260502181539 13 233 9.7 30.6 0.00 0.43 0.08 46 1011.7
20260502163032 12 300 4.8 20.9 0.00 0.43 0.08 57 1012.3
20260502161538 11 300 4.8 22.5 0.00 0.43 0.08 61 1012.5
20260502151536 10 260 4.8 17.7 0.00 0.43 0.08 66 1012.7
20260502123045 6 248 4.8 19.3 0.00 0.43 0.08 86 1012.9
20260502121542 6 252 9.7 25.7 0.00 0.43 0.08 87 1012.9
20260502114537 6 247 9.7 22.5 0.00 0.43 0.08 88 1012.7
20260502113038 6 244 9.7 16.1 0.00 0.43 0.08 88 1012.5
20260502111628 6 244 11.3 20.9 0.00 0.43 0.08 88 1012.4
20260502110037 6 277 9.7 20.9 0.00 0.43 0.08 88 1012.4
20260502104536 6 257 8.0 17.7 0.00 0.43 0.08 88 1012.0
20260502103052 6 290 6.4 19.3 0.00 0.43 0.08 87 1011.9
20260502101537 6 209 4.8 16.1 0.00 0.43 0.08 87 1011.8
20260502070037 7 0 0.0 6.4 0.00 0.43 0.08 86 1011.5
20260502064539 7 167 3.2 6.4 0.00 0.43 0.08 86 1011.6
20260502063044 7 0 0.0 0.0 0.00 0.43 0.08 86 1011.6
20260502061537 7 0 0.0 0.0 0.00 0.43 0.08 86 1011.5
20260502060037 7 0 0.0 0.0 0.00 0.43 0.08 86 1011.8
20260502054542 8 167 0.0 4.8 0.05 0.43 0.08 85 1011.9
20260502053038 8 167 1.6 6.4 0.05 0.43 0.08 84 1011.9
20260502051536 8 0 0.0 4.8 0.05 0.43 0.08 83 1012.1
20260502050036 8 167 0.0 4.8 0.08 0.43 0.08 81 1012.2
20260502044534 8 0 0.0 0.0 0.13 0.38 0.03 81 1012.2
20260502043039 8 0 0.0 4.8 0.20 0.38 0.03 81 1011.9
20260502041538 8 167 1.6 6.4 0.25 0.38 0.03 79 1012.1
20260502040037 9 167 4.8 9.7 0.28 0.36 0.00 77 1012.0
20260502034537 9 195 4.8 9.7 0.23 0.25 0.25 74 1012.3
20260502033044 10 194 4.8 8.0 0.18 0.18 0.18 72 1012.2
20260502031535 10 217 3.2 6.4 0.13 0.13 0.13 69 1012.1
20260502030037 11 240 3.2 8.0 0.08 0.08 0.08 67 1012.1
20260502024535 11 240 3.2 11.3 0.03 0.03 0.03 64 1012.1
20260502023040 11 237 6.4 14.5 0.00 0.00 0.00 60 1012.1
20260502021535 11 261 6.4 19.3 0.00 0.00 0.00 56 1011.9
20260502020038 11 229 3.2 6.4 0.00 0.00 0.00 53 1012.0
20260502014535 11 0 0.0 3.2 0.00 0.00 0.00 52 1011.8
20260502013044 12 0 0.0 0.0 0.00 0.00 0.00 50 1011.7
20260502011537 12 0 0.0 3.2 0.00 0.00 0.00 48 1011.6
20260502010045 12 261 3.2 4.8 0.00 0.00 0.00 47 1011.6
20260502004552 12 261 0.0 4.8 0.00 0.00 0.00 46 1011.4
20260502003034 12 247 3.2 9.7 0.00 0.00 0.00 45 1011.4
20260502001537 13 264 1.6 11.3 0.00 0.00 0.00 45 1011.3
20260502000049 13 0 4.8 16.1 0.00 0.00 0.00 44 1011.3
20260501234536 13 313 4.8 19.3 0.00 0.00 0.00 43 1011.0
20260501233040 13 294 4.8 19.3 0.00 0.00 0.00 42 1010.8
20260501231540 13 264 4.8 17.7 0.00 0.00 0.00 42 1010.8
20260501230032 14 300 4.8 19.3 0.00 0.00 0.00 40 1010.6
20260501224540 14 242 4.8 17.7 0.00 0.00 0.00 40 1010.4
20260501223037 15 315 3.2 14.5 0.00 0.00 0.00 41 1010.2
20260501221536 15 267 3.2 16.1 0.00 0.00 0.00 40 1010.1
20260501220050 15 273 6.4 20.9 0.00 0.00 0.00 39 1010.0
20260501214538 15 242 9.7 20.9 0.00 0.00 0.00 39 1010.0
20260501213054 15 249 4.8 22.5 0.00 0.00 0.00 37 1010.0
20260501211537 15 244 9.7 20.9 0.00 0.00 0.00 38 1010.0